Flight Track Log - Related Links

Times and Time Zones

All times are in EDT time to prevent confusion due to time zone crossing. See the N201LH flight status page for this flight to view local times or setup timezone preferences in your user account.

Time Position Orientation Groundspeed Altitude Reporting Facility
EDT Latitude Longitude Course Direction KTS MPH feet Rate Location/Type
Sat 17:19:16 41.5167 -81.6950 339° North 75 86 1,200  Level Cleveland Center
Sat 17:20:16 41.5397 -81.7067 339° North 106 122 1,900 615 Climbing Cleveland Center
Sat 17:20:34 41.5481 -81.7094 346° North 125 144 2,000 90 Climbing Cleveland Center
Sat 17:21:23 41.5811 -81.7211 345° North 150 173 2,000 273 Level Cleveland Center
Sat 17:22:24 41.6250 -81.7275 354° North 154 177 2,500 687 Climbing Cleveland Center
Sat 17:23:34 41.6622 -81.7339 353° North 147 169 3,500 831 Climbing Cleveland Center
Sat 17:24:34 41.6936 -81.7400 352° North 123 142 4,300 750 Climbing Cleveland Center
Sat 17:25:34 41.7228 -81.7433 355° North 118 136 5,000 650 Climbing Cleveland Center
Sat 17:26:34 41.7433 -81.7631 324° Northwest 98 113 5,600 550 Climbing Cleveland Center
Sat 17:27:34 41.7556 -81.7939 298° West 86 99 6,100 250 Climbing Cleveland Center
Sat 17:28:34 41.7739 -81.8306 304° West 108 124 6,100  Level Cleveland Center
Sat 17:29:34 41.7922 -81.8725 300° West 120 138 6,100  Level Cleveland Center
Sat 17:30:34 41.8125 -81.9147 303° West 125 144 6,100  Level Cleveland Center
Sat 17:31:34 41.8331 -81.9514 307° West 125 144 6,100  Level Cleveland Center
Sat 17:32:34 41.8511 -81.9964 298° West 125 144 6,100  Level Cleveland Center
Sat 17:33:34 41.8736 -82.0417 304° West 125 144 6,100  Level Cleveland Center
Sat 17:34:34 41.8919 -82.0783 304° West 125 144 6,100  Level Cleveland Center
Sat 17:35:34 41.9122 -82.1206 303° West 130 150 6,100  Level Cleveland Center
Sat 17:36:34 41.9303 -82.1600 302° West 130 150 6,100  Level Cleveland Center
Sat 17:37:34 41.9528 -82.2025 305° West 130 150 6,100  Level Cleveland Center
Sat 17:38:00 41.9608 -82.2222 299° West 129 148 6,100  Level Cleveland Center
Sat 17:38:34 41.9689 -82.2447 296° West 130 150 6,100  Level Cleveland Center
Sat 17:39:07 41.9831 -82.2619 318° Northwest 126 145 6,100  Level Cleveland Center
Sat 17:39:34 41.9892 -82.2817 293° West 125 144 6,100  Level Cleveland Center
Sat 17:40:13 42.0033 -82.3100 304° West 125 144 6,100  Level Cleveland Center
Sat 17:40:34 42.0092 -82.3214 305° West 125 144 6,100  Level Cleveland Center
Sat 17:41:14 42.0233 -82.3497 304° West 125 144 6,100  Level Cleveland Center
Sat 17:41:34 42.0297 -82.3583 315° West 125 144 6,100  Level Cleveland Center
Sat 17:42:15 42.0542 -82.3786 328° Northwest 137 158 6,100  Level Cleveland Center
Sat 17:42:34 42.0606 -82.3842 327° Northwest 125 144 6,100  Level Cleveland Center
Sat 17:43:15 42.0808 -82.4072 320° Northwest 129 148 6,100  Level Cleveland Center
Sat 17:43:34 42.0869 -82.4158 314° West 125 144 6,100  Level Cleveland Center
Sat 17:44:16 42.1097 -82.4389 323° Northwest 129 148 6,100  Level Cleveland Center
Sat 17:44:34 42.1178 -82.4475 322° Northwest 130 150 6,100  Level Cleveland Center
Sat 17:45:05 42.1364 -82.4647 326° Northwest 135 155 6,100  Level Cleveland Center
Sat 17:45:34 42.1464 -82.4764 319° Northwest 135 155 6,100  Level Cleveland Center
Sat 17:46:11 42.1650 -82.4936 326° Northwest 133 153 6,100  Level Cleveland Center
Sat 17:46:34 42.1753 -82.5081 314° West 135 155 6,100  Level Cleveland Center
Sat 17:47:12 42.1956 -82.5283 323° Northwest 131 151 6,100  Level Cleveland Center
Sat 17:47:34 42.2039 -82.5397 315° West 130 150 6,100  Level Cleveland Center
Sat 17:48:25 42.2306 -82.5631 327° Northwest 134 154 6,100  Level Cleveland Center
Sat 17:49:31 42.2611 -82.5975 320° Northwest 132 152 6,100  Level Cleveland Center
Sat 17:50:08 42.2817 -82.6178 324° Northwest 134 154 6,100  Level Cleveland Center
Sat 17:51:03 42.3061 -82.6467 319° Northwest 134 154 6,100  Level Cleveland Center
Sat 17:52:10 42.3408 -82.6844 321° Northwest 135 155 6,100  Level Cleveland Center
Sat 17:53:10 42.3717 -82.7136 325° Northwest 135 155 6,100  Level Cleveland Center
Sat 17:54:11 42.4022 -82.7456 322° Northwest 133 153 6,100  Level Cleveland Center
Sat 17:55:12 42.4289 -82.7744 321° Northwest 129 148 6,100  Level Cleveland Center
Sat 17:56:19 42.4614 -82.8122 319° Northwest 133 153 6,100  Level Cleveland Center
Sat 17:57:14 42.4881 -82.8358 327° Northwest 129 148 6,100  Level Cleveland Center
Sat 17:58:15 42.5186 -82.8706 320° Northwest 133 153 6,100  Level Cleveland Center
Sat 17:59:15 42.5472 -82.9000 323° Northwest 135 155 6,100  Level Cleveland Center
Sat 18:00:22 42.5778 -82.9375 318° Northwest 135 155 6,100  Level Cleveland Center
Sat 18:01:23 42.6106 -82.9669 327° Northwest 136 157 6,100 -49 Level Cleveland Center
Sat 18:02:24 42.6411 -83.0022 320° Northwest 137 158 6,000  Descending Cleveland Center
Sat 18:03:31 42.6717 -83.0372 320° Northwest 143 165 6,100 52 Climbing Cleveland Center
Sat 18:04:20 42.7003 -83.0664 323° Northwest 151 174 6,100  Level Cleveland Center
Sat 18:05:27 42.7347 -83.1019 323° Northwest 145 167 6,100  Level Cleveland Center
Sat 18:06:28 42.7714 -83.1428 321° Northwest 153 176 6,100 -141 Level Cleveland Center
Sat 18:07:35 42.8061 -83.1783 323° Northwest 150 173 5,800 -347 Descending Cleveland Center
Sat 18:08:29 42.8367 -83.2136 320° Northwest 160 184 5,400 -496 Descending Cleveland Center
Sat 18:09:36 42.8753 -83.2519 324° Northwest 150 173 4,800 -563 Descending Cleveland Center
Sat 18:10:37 42.9097 -83.2903 321° Northwest 156 180 4,200 -344 Descending Cleveland Center
Sat 18:11:38 42.9422 -83.3258 321° Northwest 149 171 4,100 -49 Descending Cleveland Center
Sat 18:12:39 42.9708 -83.3583 320° Northwest 136 157 4,100  Level Cleveland Center
Sat 18:13:46 43.0075 -83.3939 325° Northwest 140 161 4,100  Level Cleveland Center
Sat 18:14:41 43.0381 -83.4153 333° Northwest 160 184 4,100  Level Cleveland Center
Sat 18:15:48 43.0883 -83.4061 North 159 183 4,100  Level Cleveland Center
Sat 18:16:36 43.1219 -83.3992 North 160 184 4,100  Level Cleveland Center
Sat 18:17:37 43.1700 -83.3928 North 162 186 4,100 -246 Level Cleveland Center
Sat 18:18:38 43.2181 -83.3922 360° North 166 191 3,600 -541 Descending Cleveland Center
Sat 18:19:39 43.2419 -83.4303 311° West 132 152 3,000 -422 Descending Cleveland Center
Sat 18:20:46 43.2642 -83.4683 309° West 123 142 2,700 -94 Descending Cleveland Center
Sat 18:21:47 43.2842 -83.5008 310° West 117 135 2,800 98 Climbing Cleveland Center
Sat 18:24:00 43.3252 -83.5999 314° West  Level Estimated
Sat 18:31:00 43.4333 -83.8500 324° Northwest  Level FlightAware Approximate
Sat 18:32:00 43.4334 -83.8623 324° Northwest  Level Estimated
Sat 18:33:00 43.4334 -83.8623 324° Northwest  Level Estimated
Sat 18:34:00 43.4334 -83.8623 324° Northwest  Level Estimated
Sat 18:35:00 43.4334 -83.8623 324° Northwest  Level Estimated
Sat 18:36:00 43.4334 -83.8623 324° Northwest  Level Estimated

Login

Don't have an account? Register now (free) for customized features, flight alerts, and more!